Flag for U.S.A. Weather past 2 weeks in Boca Raton, Florida, U.S.A.

Now
73 °F

Clear.


Feels Like: 70 °F
Forecast: 74 / 83 °F
Wind: No wind

Location: Pompano Beach - Pompano Beach Airpark

Current Time: Oct 22, 2014 at 6:45:47 AM

Latest Report: Oct 22, 2014 at 5:53 AM


Visibility: 10 mi

Pressure: 29.92 "Hg

Humidity: 94%

Dew point: 71 °F

Location of Boca RatonLocation

Historic Weather in Boca Raton — Graph

°F

Boca Raton temperature yesterday

Maximum temperature yesterday: 82 °F (at 12:53 AM)
Minimum temperature yesterday: 74 °F (at 6:53 PM)
Average temperature yesterday: 79 °F

Past Weeks' High & Low Weather Summary

 TemperatureHumidityPressure
High89 °F (Oct 13, 1:53 PM)96% (Oct 15, 7:53 AM)30.12 "Hg (Oct 15, 7:53 AM)
Low66 °F (Oct 17, 6:53 AM)34% (Oct 17, 12:53 PM)29.87 "Hg (Oct 16, 5:53 PM)
Average81 °F70%29.99 "Hg
* Reported Oct 7 5:02 AM — Oct 22 5:53 AM, Boca Raton, Weather by CustomWeather, © 2014

Note: Actual official high and low records may vary slightly from our data, if they occured in-between our weather recording intervals... More about our weather records

Advertising

Boca Raton weather history for previous 24 hours

 ConditionsComfort  
Time TempWeatherWind HumidityBarometerVisibility
5:53 AM
Oct 22
73 °FClear.No wind94%29.92 "Hg10 mi
4:53 AM73 °FClear.No wind94%29.91 "Hg10 mi
3:53 AM75 °FClear.No wind88%29.91 "Hg10 mi
2:53 AM74 °FClear.3 mph91%29.91 "Hg10 mi
1:53 AM75 °FClear.3 mph90%29.93 "Hg10 mi
12:53 AM75 °FClear.No wind88%29.95 "Hg10 mi
11:53 PM
Oct 21
75 °FClear.No wind88%29.95 "Hg10 mi
10:53 PM76 °FClear.No wind85%29.96 "Hg10 mi
9:53 PM76 °FClear.No wind85%29.96 "Hg10 mi
8:53 PM75 °FClear.No wind85%29.95 "Hg10 mi
7:53 PM75 °FClear.No wind82%29.94 "Hg10 mi
6:53 PM74 °FBroken clouds.3 mph82%29.94 "Hg10 mi
5:53 PM75 °FScattered clouds.13 mph79%29.93 "Hg10 mi
4:53 PM80 °FBroken clouds.14 mph74%29.93 "Hg10 mi
3:53 PM80 °FBroken clouds.7 mph76%29.91 "Hg10 mi
3:00 PM79 °FBroken clouds.9 mph84%29.92 "Hg10 mi
1:53 PM79 °FBroken clouds.5 mph88%29.93 "Hg10 mi
12:53 PM82 °FMostly cloudy.8 mph77%29.94 "Hg10 mi
11:53 AM81 °FPartly sunny.7 mph77%29.97 "Hg7 mi
10:53 AM82 °FCloudy.10 mph74%29.97 "Hg10 mi
9:53 AM81 °FPassing clouds.5 mph79%29.97 "Hg10 mi
8:53 AM77 °FBroken clouds.3 mph90%29.96 "Hg10 mi
7:53 AM75 °FLight rain. Fog.7 mph88%29.94 "Hg6 mi
6:53 AM77 °FLight rain. Fog.12 mph88%29.94 "Hg5 mi
Weather by CustomWeather, © 2014

See weather overviewHow to use our weather pages